CW4611 Weather Reports


time (UTC)temp
F
wind
direction
speed
knots
gust
knots
rain 1hr
in
rain 24hr
in
rain mn
in
humidity
%
barometer
mb
20260508014604 56 12 0.9 2.6 0.00 0.00 0.00 39 1017.8
20260508013604 57 15 0.9 5.2 0.00 0.00 0.00 39 1017.9
20260508013104 57 14 1.7 10.4 0.00 0.00 0.00 38 1017.9
20260508011604 57 15 2.6 5.2 0.00 0.00 0.00 37 1017.8
20260508011104 58 13 0.9 2.6 0.00 0.00 0.00 39 1017.8
20260508010105 58 14 0.9 2.6 0.00 0.00 0.00 38 1018.1
20260508004604 58 15 1.7 4.3 0.00 0.00 0.00 38 1018.3
20260508004104 58 14 2.6 5.2 0.00 0.00 0.00 37 1018.3
20260508003604 57 14 2.6 7.8 0.00 0.00 0.00 39 1018.4
20260508001604 57 14 0.9 5.2 0.00 0.00 0.00 39 1018.7
20260508000604 57 14 1.7 6.1 0.00 0.00 0.00 38 1018.7
20260508000104 57 14 4.3 11.3 0.00 0.00 0.00 38 1018.7
20260507234604 58 11 2.6 6.1 0.00 0.00 0.00 39 1018.7
20260507234104 58 14 3.5 10.4 0.00 0.00 0.00 37 1018.7
20260507233604 58 14 4.3 12.2 0.00 0.00 0.00 37 1018.7
20260507233103 59 14 2.6 10.4 0.00 0.00 0.00 38 1018.8
20260507231604 59 14 3.5 8.7 0.00 0.00 0.00 36 1019.0
20260507231103 60 14 4.3 10.4 0.00 0.00 0.00 34 1018.9
20260507230604 60 13 5.2 11.3 0.00 0.00 0.00 34 1019.1
20260507230104 60 15 1.7 15.6 0.00 0.00 0.00 34 1019.1
20260507224604 62 14 4.3 12.2 0.00 0.00 0.00 31 1019.2
20260507224104 62 12 6.1 18.2 0.00 0.00 0.00 31 1019.0
20260507223604 61 13 5.2 14.8 0.00 0.00 0.00 32 1019.2
20260507221604 62 13 6.1 14.8 0.00 0.00 0.00 32 1019.3
20260507221104 62 11 5.2 13.9 0.00 0.00 0.00 34 1019.3
20260507220604 61 12 4.3 12.2 0.00 0.00 0.00 33 1019.2
20260507220104 61 14 5.2 12.2 0.00 0.00 0.00 33 1019.2
20260507214604 60 14 6.1 11.3 0.00 0.00 0.00 35 1019.6
20260507214104 60 13 4.3 10.4 0.00 0.00 0.00 34 1019.6
20260507213604 61 13 3.5 12.2 0.00 0.00 0.00 33 1019.7
20260507213105 61 14 6.1 13.0 0.00 0.00 0.00 33 1019.8
20260507211605 63 13 4.3 12.2 0.00 0.00 0.00 34 1020.0
20260507211105 63 13 4.3 10.4 0.00 0.00 0.00 34 1020.1
20260507210605 63 11 3.5 15.6 0.00 0.00 0.00 34 1020.3
20260507210105 62 13 4.3 13.9 0.00 0.00 0.00 36 1020.3
20260507203605 61 13 5.2 13.9 0.00 0.00 0.00 34 1020.7
20260507203104 60 12 4.3 13.9 0.00 0.00 0.00 38 1020.5
20260507201605 61 13 4.3 10.4 0.00 0.00 0.00 34 1020.5
20260507201105 62 13 2.6 11.3 0.00 0.00 0.00 33 1020.5
20260507200605 62 12 2.6 11.3 0.00 0.00 0.00 34 1020.3
20260507200105 62 12 7.0 15.6 0.00 0.00 0.00 32 1020.4
20260507194604 63 13 4.3 12.2 0.00 0.00 0.00 33 1020.8
20260507194105 64 12 5.2 13.0 0.00 0.00 0.00 31 1020.8
20260507193104 64 13 4.3 14.8 0.00 0.00 0.00 32 1020.7
20260507190605 63 12 4.3 12.2 0.00 0.00 0.00 32 1021.1
20260507190105 63 10 2.6 13.0 0.00 0.00 0.00 33 1021.3
20260507184605 63 12 4.3 12.2 0.00 0.00 0.00 32 1021.4
20260507184105 63 13 4.3 13.9 0.00 0.00 0.00 33 1021.5
20260507183605 63 12 4.3 11.3 0.00 0.00 0.00 33 1021.4
20260507183105 63 13 6.1 14.8 0.00 0.00 0.00 33 1021.6
20260507181605 62 12 4.3 10.4 0.00 0.00 0.00 34 1021.9
20260507181105 62 13 3.5 10.4 0.00 0.00 0.00 34 1022.1
20260507180605 62 13 4.3 12.2 0.00 0.00 0.00 34 1022.3
20260507174604 61 14 4.3 14.8 0.00 0.00 0.00 34 1022.5
20260507174105 60 13 3.5 10.4 0.00 0.00 0.00 36 1022.6
20260507173604 60 12 6.1 10.4 0.00 0.00 0.00 35 1022.6
20260507171605 56 14 4.3 8.7 0.00 0.00 0.00 38 1023.2
20260507171105 55 12 4.3 7.0 0.00 0.00 0.00 39 1023.4
20260507170605 54 14 3.5 8.7 0.00 0.00 0.00 41 1023.5
20260507170105 53 12 1.7 5.2 0.00 0.00 0.00 42 1023.6
20260507164605 52 15 1.7 2.6 0.00 0.00 0.00 42 1023.8
20260507164105 52 14 0.9 2.6 0.00 0.00 0.00 40 1024.0
20260507163105 52 14 1.7 6.1 0.00 0.00 0.00 41 1024.1
20260507161605 51 13 1.7 2.6 0.00 0.00 0.00 46 1024.2
20260507161105 50 13 2.6 5.2 0.00 0.00 0.00 44 1024.3
20260507160605 50 12 2.6 7.0 0.00 0.00 0.00 45 1024.5
20260507160105 50 13 2.6 4.3 0.00 0.00 0.00 45 1024.6
20260507154604 48 11 1.7 2.6 0.00 0.00 0.00 54 1024.7
20260507154104 47 12 0.9 1.7 0.00 0.00 0.00 56 1024.7
20260507153605 47 13 0.9 2.6 0.00 0.00 0.00 56 1024.9
20260507151604 46 9 0.9 2.6 0.00 0.00 0.00 56 1025.0
20260507151105 45 9 1.7 2.6 0.00 0.00 0.00 60 1025.0
20260507144605 43 12 0.0 1.7 0.00 0.00 0.00 62 1024.8
20260507144105 42 12 0.9 1.7 0.00 0.00 0.00 66 1024.8
20260507143605 42 13 0.9 1.7 0.00 0.00 0.00 66 1024.9
20260507143105 41 12 0.0 2.6 0.00 0.00 0.00 66 1024.9
20260507141604 41 13 1.7 4.3 0.00 0.00 0.00 66 1025.1
20260507140604 40 13 0.0 0.9 0.00 0.00 0.00 66 1025.1
20260507140105 40 13 0.9 2.6 0.00 0.00 0.00 65 1025.2
20260507134605 39 13 0.0 0.0 0.00 0.00 0.00 68 1025.3
20260507134105 38 13 0.9 1.7 0.00 0.00 0.00 68 1025.4
20260507133605 38 9 0.0 1.7 0.00 0.00 0.00 71 1025.4
20260507133105 38 9 0.9 2.6 0.00 0.00 0.00 68 1025.4
20260507131604 38 11 0.9 2.6 0.00 0.00 0.00 66 1025.5
20260507130605 38 9 1.7 5.2 0.00 0.00 0.00 66 1025.5
20260507130104 38 10 1.7 5.2 0.00 0.00 0.00 65 1025.4
20260507124105 36 9 0.9 2.6 0.00 0.00 0.00 70 1025.3
20260507123605 35 7 0.9 2.6 0.00 0.00 0.00 71 1025.4
20260507123105 35 9 0.0 2.6 0.00 0.00 0.00 71 1025.5
20260507121104 36 13 0.0 0.0 0.00 0.00 0.00 66 1025.6
20260507120105 37 10 2.6 12.2 0.00 0.00 0.00 63 1025.8
20260507114605 38 9 7.0 11.3 0.00 0.00 0.00 61 1025.6
20260507114105 38 10 5.2 10.4 0.00 0.00 0.00 60 1025.7
20260507113105 37 9 8.7 13.9 0.00 0.00 0.00 61 1025.7
20260507111604 37 9 8.7 13.9 0.00 0.00 0.00 63 1025.7
20260507111104 36 10 7.0 11.3 0.00 0.00 0.00 64 1025.8
20260507110604 36 10 9.6 14.8 0.00 0.00 0.00 63 1025.8
20260507104605 37 10 8.7 13.0 0.00 0.00 0.00 62 1026.1
20260507104104 37 11 10.4 13.0 0.00 0.00 0.00 61 1026.2
20260507103605 37 10 8.7 12.2 0.00 0.00 0.00 63 1026.2
20260507101605 36 9 3.5 6.1 0.00 0.00 0.00 63 1026.3
20260507101105 35 9 2.6 5.2 0.00 0.00 0.00 65 1026.5
20260507100605 34 9 2.6 7.0 0.00 0.00 0.00 67 1026.5
20260507100105 34 9 2.6 10.4 0.00 0.00 0.00 69 1026.5
20260507094604 36 10 7.8 12.2 0.00 0.00 0.00 64 1026.6
20260507094104 36 10 5.2 11.3 0.00 0.00 0.00 64 1026.7
20260507093604 36 11 6.1 11.3 0.00 0.00 0.00 66 1026.7
20260507093104 35 10 9.6 13.0 0.00 0.00 0.00 67 1026.8
20260507091604 34 9 0.9 2.6 0.00 0.00 0.00 68 1026.8
20260507091104 35 9 1.7 4.3 0.00 0.00 0.00 68 1026.8
20260507090604 36 9 0.9 2.6 0.00 0.00 0.00 63 1026.9
20260507090105 37 10 2.6 8.7 0.00 0.00 0.00 62 1026.8
20260507084604 35 9 3.5 6.1 0.00 0.00 0.00 66 1026.9
20260507084105 34 9 2.6 2.6 0.00 0.00 0.00 70 1027.0
20260507083605 34 9 1.7 4.3 0.00 0.00 0.00 71 1027.1
20260507083105 33 9 1.7 2.6 0.00 0.00 0.00 71 1027.0
20260507081604 34 7 2.6 4.3 0.00 0.00 0.00 71 1027.0
20260507080604 34 9 0.0 0.9 0.00 0.00 0.00 69 1027.1
20260507080105 34 9 2.6 2.6 0.00 0.00 0.00 68 1027.2
20260507074605 34 12 0.9 1.7 0.00 0.00 0.00 70 1027.3
20260507074104 35 12 0.9 2.6 0.00 0.00 0.00 68 1027.3
20260507073604 35 12 0.0 1.7 0.00 0.01 0.00 68 1027.2
20260507073104 35 12 0.0 1.7 0.00 0.01 0.00 68 1027.3
20260507071104 35 10 0.0 2.6 0.00 0.02 0.00 66 1027.3
20260507070604 35 9 0.9 2.6 0.00 0.02 0.00 67 1027.3
20260507070104 36 9 1.7 10.4 0.00 0.02 0.00 65 1027.3
20260507064604 37 9 2.6 4.3 0.00 0.02 0.00 60 1027.3
20260507063605 36 9 4.3 7.0 0.00 0.02 0.00 62 1027.3
20260507061605 36 10 7.8 12.2 0.00 0.02 0.00 64 1027.2
20260507061106 36 11 7.8 13.9 0.00 0.02 0.00 64 1027.2
20260507060604 36 10 10.4 13.9 0.00 0.02 0.00 63 1027.2
20260507060104 37 10 6.1 12.2 0.00 0.02 0.00 61 1027.2
20260507054605 37 10 8.7 12.2 0.00 0.03 0.02 61 1027.2
20260507053605 37 10 7.8 13.0 0.00 0.06 0.02 61 1027.3
20260507053104 37 9 3.5 13.0 0.00 0.06 0.02 62 1027.2
20260507051604 37 10 5.2 10.4 0.00 0.06 0.02 59 1027.4
20260507051104 38 10 6.1 11.3 0.00 0.06 0.02 59 1027.4
20260507050605 38 10 9.6 12.2 0.00 0.06 0.02 59 1027.4
20260507050104 38 9 3.5 7.8 0.00 0.06 0.02 60 1027.3
20260507044104 38 9 5.2 7.8 0.00 0.06 0.02 57 1027.4
20260507043604 38 9 4.3 8.7 0.00 0.06 0.02 58 1027.4
20260507041604 38 9 3.5 6.1 0.00 0.06 0.02 58 1027.5
20260507041104 38 9 3.5 5.2 0.00 0.06 0.02 59 1027.5
20260507040605 38 9 2.6 5.2 0.00 0.06 0.02 58 1027.5
20260507040104 39 9 2.6 6.1 0.00 0.06 0.02 58 1027.5
20260507034604 38 10 2.6 4.3 0.00 0.06 0.02 59 1027.4
20260507034104 39 10 0.0 2.6 0.00 0.06 0.02 60 1027.2
20260507033604 39 9 2.6 2.6 0.00 0.06 0.02 60 1027.2
20260507033104 39 9 1.7 4.3 0.00 0.06 0.02 60 1027.1
20260507031604 39 9 2.6 2.6 0.00 0.06 0.02 58 1026.7
20260507031104 40 9 1.7 2.6 0.00 0.07 0.02 56 1026.7
20260507030104 42 8 2.6 4.3 0.00 0.08 0.02 53 1026.5
20260507024604 43 15 1.7 2.6 0.00 0.11 0.02 48 1026.4
20260507023604 44 15 1.7 2.6 0.00 0.17 0.02 47 1026.4
20260507021604 46 15 0.9 2.6 0.00 0.20 0.02 42 1026.2
20260507021104 46 15 0.9 1.7 0.00 0.20 0.02 42 1026.3
20260507020104 46 15 1.7 7.8 0.00 0.20 0.02 40 1026.4